Vorticity
4 5 6 7 9 12 15 18 21 24 26 26 26 24 22 21 19 17 15 13 13 12 12 12 12 12 13 14 15 16 17 17 18 19 20 20 20 19 18 19 20 20 17 11 7 5 4 6 8 10 10 9 8 7 3 -0 -3 -5 -5 -2 -1 1 5 19 25 24 16 13 11 11 13 16 18 17 16 13 9 6 3 3 5 9 13 16 16 16
6 7 10 12 15 17 19 23 26 28 26 25 23 21 19 17 15 13 12 12 12 12 12 12 13 13 15 17 18 19 19 19 20 20 20 20 20 20 20 19 20 20 20 20 19 17 15 13 13 13 14 12 10 7 2 -2 -7 -11 -13 -8 -5 0 12 24 23 17 11 11 12 13 15 17 15 12 10 7 4 1 0 3 7 11 13 15 16 18
7 10 14 17 20 22 22 24 26 27 25 22 20 17 16 14 12 12 11 11 12 13 13 14 14 16 18 19 20 21 21 20 20 20 20 20 20 20 20 21 21 21 22 22 24 24 24 23 23 23 24 22 19 14 9 4 0 -3 -4 -2 2 10 26 29 21 12 11 13 13 14 16 17 16 14 10 6 4 2 4 6 8 11 13 15 17 18
12 15 18 20 24 26 26 24 23 22 21 18 16 13 12 12 11 11 11 12 12 13 15 15 16 18 20 21 21 21 20 20 20 20 19 19 19 20 20 20 21 22 23 24 25 27 28 28 29 30 31 31 29 26 23 21 20 20 19 20 23 30 38 27 17 11 14 13 12 12 12 13 14 13 11 8 7 7 8 10 13 15 17 18 19 18
19 21 21 22 24 26 25 22 20 17 15 14 12 11 11 11 11 11 12 12 13 14 15 17 18 19 20 20 20 20 19 20 20 20 20 20 20 20 20 20 21 22 22 23 24 25 27 28 30 31 33 34 35 36 37 36 36 36 35 37 40 40 34 17 10 10 13 13 12 11 11 11 11 11 11 10 10 10 11 13 15 17 17 18 18 18
23 25 24 25 25 22 18 17 15 13 12 11 11 11 11 11 11 11 12 12 13 15 16 19 20 20 20 19 19 19 20 20 21 21 21 21 21 21 21 21 21 21 22 22 22 23 24 26 28 30 32 32 33 35 35 32 29 28 31 36 37 32 20 9 6 8 11 11 11 11 12 12 13 13 13 12 12 11 12 12 13 13 13 14 14 14
24 26 25 25 23 19 15 14 12 11 10 10 10 11 11 12 13 13 13 12 13 14 17 20 21 22 21 20 19 19 20 21 21 21 21 21 21 21 21 21 21 21 21 21 21 21 21 23 25 27 28 27 25 23 21 16 13 13 17 22 21 16 9 6 8 10 13 12 11 10 10 10 11 12 13 12 10 9 8 9 9 9 9 8 8 8
22 23 24 21 18 15 14 12 11 11 11 10 10 10 10 12 13 14 14 14 15 15 16 17 19 21 22 20 20 19 19 19 20 20 20 20 21 21 21 20 20 20 20 20 20 20 20 20 21 23 25 25 24 22 20 15 13 12 14 15 11 6 2 3 7 13 16 15 12 9 8 8 8 8 8 7 6 6 5 5 5 5 5 5 5 5
21 19 20 17 14 11 10 11 11 11 10 10 10 10 10 10 11 12 14 16 17 17 16 15 15 16 19 20 20 19 19 19 19 19 19 19 19 19 19 18 18 18 17 17 17 17 17 17 17 18 19 21 22 24 25 25 27 29 31 27 18 8 -1 -2 3 10 14 13 10 8 7 6 6 5 4 4 3 3 3 3 3 3 3 4 4 5
21 18 15 14 12 11 9 9 10 10 10 10 11 12 11 11 10 10 12 15 17 18 19 18 16 14 14 17 18 18 18 18 18 18 18 17 16 16 15 14 14 14 15 15 15 15 15 14 13 12 12 12 14 16 19 23 28 34 39 38 31 20 8 5 6 9 10 8 7 7 7 6 6 6 6 6 6 7 7 7 7 7 8 8 9 10
18 15 13 11 10 10 11 10 9 9 9 10 11 13 14 14 13 13 13 14 15 16 18 20 19 17 13 13 14 14 14 14 14 14 15 14 13 12 11 11 11 12 12 13 14 14 14 13 11 9 8 7 6 6 7 10 13 18 25 32 35 33 28 25 20 15 8 7 7 8 8 10 11 12 13 14 15 15 15 15 15 15 16 16 17 17
14 12 11 10 9 9 10 10 10 9 9 8 9 11 13 15 17 18 18 17 16 15 16 17 19 19 17 14 12 11 11 12 12 11 11 11 10 10 9 9 9 10 11 12 13 14 15 14 13 11 9 7 6 5 4 4 6 8 13 20 27 33 35 30 21 14 10 10 10 10 10 12 15 17 19 20 20 20 20 19 18 18 19 20 21 22
12 10 10 9 9 9 9 9 9 9 10 11 11 11 12 13 15 18 20 19 18 17 15 15 16 16 16 15 12 10 10 11 11 11 10 10 10 9 9 9 10 10 10 11 12 13 15 15 15 14 12 11 10 9 9 9 10 11 14 16 15 13 12 14 14 13 10 9 8 7 8 11 13 16 17 18 17 16 16 16 16 16 17 19 20 21
10 9 9 9 10 10 10 9 9 10 11 12 13 14 14 14 16 17 18 19 18 17 16 16 15 13 12 12 11 10 10 11 11 11 10 10 10 11 11 11 12 12 12 12 13 13 13 14 14 15 15 15 15 15 16 16 16 18 21 19 13 5 -2 2 6 8 8 5 3 3 5 8 10 11 11 10 10 10 11 12 13 15 16 18 19 20
9 8 9 10 10 10 10 10 10 11 12 13 14 15 16 16 17 17 17 16 14 13 13 13 13 12 11 10 9 9 10 11 11 10 10 10 11 12 12 13 13 13 14 14 15 15 15 14 14 13 14 15 16 18 19 19 18 17 19 19 17 12 5 4 6 8 7 5 3 3 5 6 7 6 6 5 6 7 9 10 13 14 16 17 17 18
9 9 10 9 10 10 10 10 10 11 11 13 14 15 15 16 15 15 16 15 13 11 10 9 8 8 8 9 9 9 10 10 10 10 9 10 11 12 13 13 14 14 15 16 16 17 17 16 15 13 13 13 14 15 17 18 16 11 6 8 9 10 10 11 11 11 10 8 8 8 7 6 5 4 3 4 5 6 7 9 11 13 14 14 14 14
9 9 10 10 10 10 9 10 11 12 13 14 15 17 18 16 15 14 15 13 12 11 10 10 9 8 7 6 6 7 9 9 9 9 9 10 12 13 13 14 14 15 15 16 17 18 18 18 18 16 14 13 12 12 13 15 15 12 6 4 4 6 8 9 10 10 9 8 7 6 4 3 2 2 3 4 6 7 8 8 7 7 6 6 6 6
9 10 9 10 10 10 9 10 11 12 13 14 15 16 18 17 16 15 14 13 11 10 10 10 10 9 8 6 6 7 8 8 9 9 10 11 13 14 14 14 14 15 15 16 17 18 18 19 19 18 17 15 13 12 12 13 14 13 11 9 7 6 6 6 6 6 6 5 4 3 2 3 3 4 5 7 9 11 13 12 10 8 6 4 4 4
10 10 10 10 10 9 10 11 12 12 13 14 14 13 15 15 14 14 13 12 11 10 9 8 8 8 7 6 7 7 8 8 9 10 11 13 14 15 15 14 14 15 16 17 17 17 18 19 19 19 18 17 15 14 13 14 14 14 14 13 11 10 9 8 7 7 6 6 5 5 6 7 8 10 11 13 15 16 17 16 14 12 10 8 7 7
10 10 11 10 9 9 11 13 13 14 15 14 14 14 15 13 13 13 12 11 10 10 9 8 7 7 6 6 6 6 6 8 9 11 12 13 15 15 14 14 14 15 16 17 17 18 18 19 19 19 18 17 16 15 14 14 15 15 15 15 14 13 13 12 11 11 11 11 11 12 13 14 15 17 18 20 20 20 19 17 16 14 13 13 12 13
9 10 11 10 10 10 11 12 13 14 14 13 14 15 14 13 12 12 11 10 9 8 8 7 7 7 6 6 6 6 8 9 10 12 13 14 15 15 14 14 14 14 16 17 17 17 18 18 17 17 17 17 16 15 14 14 14 14 14 14 14 15 15 15 15 15 16 16 17 18 18 19 20 21 21 21 21 20 20 19 18 18 18 18 19 20
10 10 10 10 11 12 12 12 13 13 13 14 14 14 12 11 11 11 10 10 9 8 8 8 7 7 6 6 6 7 8 10 11 12 13 14 15 15 15 14 14 15 16 16 17 17 17 16 16 15 15 15 15 14 13 13 12 12 12 12 12 13 13 13 14 15 16 16 17 18 19 20 20 21 21 21 21 21 21 22 22 22 22 22 22 21
10 10 10 10 11 12 12 12 12 13 14 16 16 15 13 12 11 10 9 8 8 8 8 8 8 7 7 7 8 8 10 12 13 13 13 14 14 14 14 14 15 15 15 16 16 16 15 15 14 14 14 13 13 13 12 12 12 12 11 11 11 12 12 12 13 13 14 15 16 17 18 19 20 20 21 21 21 21 21 21 21 20 20 18 17 15
10 10 10 10 11 11 11 12 12 12 14 16 16 15 14 14 13 11 10 9 9 8 8 8 9 9 10 10 10 11 13 14 14 14 14 14 14 14 15 15 15 15 15 15 15 15 14 14 13 13 13 13 13 13 13 13 13 13 13 13 13 13 13 14 14 15 16 17 18 18 19 19 19 19 19 18 18 18 17 16 15 14 13 12 10 9
10 10 10 10 11 11 12 12 12 12 13 14 14 14 13 13 12 11 10 9 9 9 10 11 12 12 12 12 12 13 14 15 14 14 13 14 14 15 16 16 16 15 13 14 14 13 13 13 14 14 14 14 14 14 14 14 14 14 15 15 15 15 15 16 16 17 17 17 17 17 17 16 16 15 14 14 13 12 12 11 11 10 10 10 9 9
11 11 11 11 11 12 12 12 12 13 13 13 13 13 12 11 10 10 10 10 11 12 13 13 13 14 14 14 14 14 15 15 15 14 13 14 14 15 16 16 16 15 13 13 12 12 12 13 14 15 15 15 15 15 14 14 14 14 14 14 14 14 14 15 15 15 15 15 14 14 13 13 12 12 12 11 11 11 11 12 12 12 12 12 13 13
10 11 11 11 11 12 12 12 13 13 13 13 13 13 12 10 10 11 11 12 13 13 12 13 14 15 15 15 15 15 15 15 14 14 13 14 15 15 15 15 15 15 13 12 11 10 11 12 13 14 14 14 14 14 13 13 13 13 12 12 12 12 12 12 12 12 12 12 12 12 12 13 13 13 14 14 15 15 16 16 16 17 17 17 18 19
10 10 10 11 11 11 12 12 12 13 13 13 13 12 12 10 11 12 11 12 13 12 11 13 14 15 15 15 15 15 15 15 14 14 13 16 16 16 14 13 14 15 14 12 10 9 9 10 11 12 12 12 12 11 11 11 10 10 10 10 10 10 10 10 10 11 12 13 13 14 15 16 17 18 19 20 20 20 21 21 20 20 20 21 21 22
10 10 10 10 11 11 12 12 13 13 13 13 12 12 12 11 11 11 11 12 12 12 12 13 14 14 14 14 15 15 16 16 15 14 13 17 18 16 13 13 14 14 13 11 9 8 8 8 8 9 10 10 10 9 9 9 10 10 10 10 10 10 10 11 12 13 14 15 17 18 19 21 22 23 23 23 23 23 22 22 22 22 21 21 21 21
10 10 10 10 11 11 12 12 13 13 13 13 12 12 12 11 11 11 11 11 12 12 13 13 14 14 14 14 15 16 16 16 15 14 15 18 18 15 12 13 13 13 12 10 8 7 7 7 7 8 8 8 8 9 9 10 11 11 11 11 12 12 13 14 15 16 17 19 20 21 22 23 24 24 23 22 22 21 20 20 19 19 18 17 16 15
9 9 9 9 9 10 11 12 13 13 13 13 13 12 12 11 11 11 11 12 12 13 13 14 14 14 14 15 15 16 16 15 15 16 17 19 17 14 12 12 11 10 10 9 9 8 7 8 8 8 8 9 9 9 10 11 12 13 13 13 14 14 15 17 18 19 19 20 20 21 21 22 21 20 19 18 17 16 15 14 14 13 13 12 11 10
9 9 9 8 9 10 11 12 13 13 13 13 13 12 12 11 11 11 12 13 13 14 14 14 14 14 14 15 17 17 15 15 15 16 18 17 15 13 12 11 9 7 7 7 7 8 10 10 10 10 10 10 10 10 10 11 13 14 14 15 15 16 17 19 19 19 19 18 18 17 17 17 16 15 13 12 10 10 9 9 9 9 9 9 9 8
9 9 9 8 9 10 11 12 13 14 14 14 13 13 12 11 11 12 13 14 15 15 15 14 14 14 14 16 18 18 17 16 16 16 16 15 13 11 11 11 9 7 6 7 7 7 9 12 13 13 13 13 12 10 10 11 12 13 15 15 16 18 19 19 18 17 16 15 13 12 11 10 10 9 8 7 6 6 6 7 8 8 9 10 11 11
8 8 8 8 9 10 12 13 14 15 16 15 15 14 13 12 13 13 15 15 15 15 15 14 14 14 14 16 17 18 18 17 16 15 13 11 10 10 10 10 10 9 8 9 9 9 10 12 13 13 13 14 13 12 11 11 11 13 14 16 18 19 20 18 16 14 12 11 9 7 6 6 5 5 5 6 7 7 8 8 9 10 10 11 12 13
8 8 8 8 9 10 12 14 16 17 17 17 16 15 13 13 14 15 16 16 15 15 14 15 15 16 16 16 16 16 16 15 14 13 10 8 8 8 9 9 10 10 10 10 11 11 12 13 13 13 13 13 14 13 13 12 12 12 14 16 17 18 18 16 13 11 10 8 7 6 5 4 5 6 7 8 10 10 11 11 11 10 10 10 10 11
7 7 8 8 9 11 13 15 17 18 19 18 17 15 14 14 15 16 17 16 15 14 14 15 16 18 18 18 16 16 15 14 13 11 9 6 6 6 7 9 10 11 10 11 12 12 12 12 12 12 13 14 14 14 14 13 13 13 13 15 16 16 15 12 9 7 7 6 6 6 6 7 8 10 11 12 12 13 13 12 11 10 10 9 8 8
7 7 7 8 9 11 14 16 18 19 20 19 17 16 15 15 15 16 16 15 14 14 14 15 17 18 19 19 18 17 16 15 12 9 7 4 4 4 5 8 10 10 10 12 13 13 13 12 12 12 12 14 15 16 16 14 13 13 14 15 16 15 12 8 6 5 5 5 6 7 9 11 13 13 13 13 13 12 12 11 10 10 9 9 8 8
7 7 7 8 9 11 14 17 19 20 20 19 17 16 15 15 15 15 15 15 15 14 15 16 17 18 18 18 17 16 15 14 12 9 6 4 2 2 4 7 8 9 9 11 13 13 13 12 11 11 12 13 15 17 18 17 16 15 14 14 14 13 10 7 6 4 5 6 8 10 12 13 13 12 11 10 10 9 9 10 10 10 10 10 10 9
7 7 7 8 10 12 15 18 19 20 21 20 18 16 14 14 14 14 14 15 15 16 16 17 17 17 17 16 14 13 12 12 12 10 8 4 2 1 3 6 8 9 9 10 11 12 12 10 10 11 12 13 15 17 19 19 18 17 15 13 12 10 7 6 5 5 6 9 11 12 12 11 9 8 7 7 7 8 9 10 11 11 12 12 11 11
7 7 8 9 10 13 16 18 19 20 21 20 18 16 15 14 13 13 14 15 16 17 17 18 18 18 16 15 13 11 10 10 10 10 10 7 4 2 2 5 7 9 10 10 10 10 10 10 9 10 12 14 15 16 18 18 18 17 16 14 12 10 7 5 5 6 8 10 12 11 9 7 6 5 5 6 7 8 9 10 10 10 10 10 10 10
7 7 8 9 11 13 16 18 20 21 21 19 17 16 15 14 13 13 14 15 16 17 17 16 16 15 14 13 11 9 7 7 7 7 8 8 6 5 3 4 6 8 10 10 10 10 10 9 9 10 11 14 15 16 16 16 17 17 16 13 11 8 5 4 5 7 10 11 10 8 6 4 4 4 5 5 6 6 7 8 8 8 7 6 6 7
8 8 9 10 12 14 16 19 20 22 21 19 17 16 15 14 14 14 14 15 15 16 15 14 13 11 9 9 8 7 5 4 4 4 4 5 6 7 6 5 6 8 10 11 12 11 10 9 9 10 12 15 16 16 14 14 14 14 14 12 11 9 6 5 6 8 11 10 8 6 3 3 3 4 5 5 5 6 5 5 5 5 5 4 4 5
8 8 9 10 12 14 16 19 21 21 20 19 18 16 15 15 15 15 15 16 15 14 14 14 13 10 8 6 5 4 2 2 2 2 2 2 4 5 7 7 8 9 10 12 13 13 12 10 9 9 11 14 16 15 14 13 13 13 12 13 13 13 11 9 8 8 10 8 6 4 2 1 2 3 4 4 5 5 4 4 4 4 4 4 5 5
9 9 9 11 13 15 18 21 22 22 21 19 17 16 15 16 16 16 16 16 15 13 13 12 11 9 7 6 4 3 1 2 2 3 3 3 3 4 6 7 8 10 10 12 14 15 14 12 10 10 10 13 15 15 13 11 11 10 10 10 10 10 11 13 12 10 10 7 4 2 0 0 1 2 3 3 3 3 4 4 4 4 4 4 5 6
9 9 10 12 14 17 20 22 22 22 21 19 17 16 16 16 16 17 16 15 14 13 12 11 10 8 7 6 4 3 3 3 4 4 5 5 6 6 7 8 10 10 10 10 13 16 16 14 12 10 10 12 14 14 12 10 9 8 8 8 8 8 10 11 11 10 8 5 3 1 0 0 1 2 3 3 3 3 3 4 4 4 4 5 6 6
9 10 11 13 16 19 21 21 21 21 20 19 18 17 16 17 17 17 16 15 13 12 11 10 10 10 9 8 7 6 5 6 6 7 7 7 7 9 11 11 12 11 10 10 12 16 17 15 13 10 10 12 13 13 11 9 8 7 8 8 10 12 13 12 11 9 6 4 2 1 1 1 2 2 3 4 4 3 3 3 3 4 4 5 6 6
9 10 12 14 17 20 22 22 21 21 20 19 18 18 18 18 17 16 15 14 13 12 11 10 10 10 10 9 8 8 7 8 8 8 8 8 8 10 12 14 14 13 10 10 12 15 18 17 14 12 12 13 13 13 11 9 8 7 7 8 11 13 13 11 9 7 5 3 2 2 2 2 2 2 3 4 4 4 4 3 3 3 4 4 5 6
10 10 12 15 18 21 22 22 21 20 19 19 19 19 19 18 17 16 14 13 12 11 11 11 10 9 8 8 7 8 8 8 9 9 9 9 10 10 12 15 16 16 14 11 11 13 17 17 15 13 13 14 14 13 11 9 8 7 6 8 10 12 13 10 8 6 5 4 3 3 4 3 3 3 4 4 4 5 4 4 4 4 4 4 5 6
10 11 13 16 19 22 23 22 21 20 19 19 19 19 19 18 17 16 14 12 11 11 11 10 10 9 8 7 7 8 8 8 8 8 7 8 9 11 12 15 17 18 18 15 13 12 14 15 14 13 13 14 14 13 9 8 7 7 6 6 8 10 11 10 8 6 5 4 4 4 4 2 2 3 4 4 5 6 6 5 4 4 4 4 5 6
10 12 14 17 20 22 23 23 22 20 20 20 20 19 18 17 16 14 13 11 10 10 10 9 8 8 7 8 8 8 8 8 7 6 6 7 8 10 12 15 17 19 20 18 15 13 13 13 12 11 11 15 16 13 9 6 6 6 6 6 8 10 11 9 8 6 5 5 5 5 4 3 2 2 2 4 5 6 6 6 5 4 4 4 5 6
10 12 14 18 20 22 23 23 22 21 20 20 19 18 17 15 14 13 11 10 10 9 8 7 7 7 7 7 8 7 7 6 6 5 5 6 7 9 10 14 17 19 20 21 19 16 13 14 13 10 9 15 17 15 11 7 6 6 6 6 8 9 10 9 8 7 6 5 5 4 3 2 2 2 1 3 5 6 6 6 5 5 4 4 5 6
Height
3036 3033 3030 3028 3025 3022 3019 3017 3015 3013 3010 3008 3006 3004 3002 2999 2997 2994 2992 2990 2987 2985 2982 2979 2977 2975 2974 2972 2970 2967 2965 2963 2961 2959 2957 2955 2953 2951 2950 2948 2947 2946 2945 2944 2943 2942 2940 2939 2938 2937 2936 2935 2934 2933 2932 2931 2930 2929 2928 2927 2927 2926 2926 2926 2925 2924 2922 2921 2920 2919 2919 2918 2918 2917 2916 2916 2915 2914 2913 2913 2912 2912 2912 2911 2911 2910
3033 3030 3028 3025 3022 3019 3016 3013 3012 3010 3008 3005 3003 3001 2999 2997 2994 2992 2989 2987 2984 2982 2980 2977 2975 2973 2970 2968 2967 2964 2962 2960 2958 2956 2954 2952 2950 2948 2947 2946 2944 2943 2942 2941 2940 2938 2937 2936 2935 2933 2933 2932 2931 2930 2929 2928 2927 2926 2925 2924 2923 2923 2923 2923 2923 2921 2920 2919 2918 2917 2917 2916 2915 2915 2914 2913 2913 2912 2912 2911 2911 2910 2910 2909 2909 2908
3030 3027 3024 3022 3019 3017 3014 3011 3008 3007 3005 3003 3000 2998 2996 2994 2991 2989 2987 2984 2981 2979 2977 2974 2973 2970 2968 2966 2964 2962 2959 2957 2955 2953 2951 2949 2948 2946 2945 2943 2942 2940 2939 2938 2937 2935 2934 2933 2931 2930 2929 2928 2928 2927 2926 2925 2924 2923 2923 2922 2921 2921 2920 2920 2920 2919 2918 2917 2916 2915 2914 2914 2913 2913 2913 2912 2911 2911 2910 2909 2909 2908 2908 2907 2907 2906
3026 3023 3020 3018 3015 3013 3011 3008 3006 3004 3002 3000 2998 2995 2993 2991 2988 2986 2984 2982 2979 2977 2974 2972 2970 2968 2966 2963 2962 2959 2957 2955 2953 2951 2949 2948 2946 2944 2942 2941 2939 2938 2936 2935 2933 2932 2931 2929 2928 2927 2926 2925 2925 2924 2923 2923 2922 2922 2921 2920 2919 2919 2918 2918 2918 2917 2915 2915 2914 2913 2913 2912 2912 2911 2911 2910 2910 2909 2908 2908 2907 2907 2906 2905 2905 2904
3022 3019 3017 3014 3012 3009 3007 3005 3003 3002 2999 2998 2996 2993 2991 2988 2986 2983 2981 2979 2977 2975 2972 2970 2968 2965 2963 2961 2959 2957 2955 2953 2951 2949 2947 2945 2944 2942 2940 2938 2937 2935 2934 2932 2931 2929 2928 2927 2926 2925 2924 2923 2922 2921 2921 2921 2920 2920 2919 2918 2918 2917 2916 2915 2915 2914 2913 2913 2912 2911 2911 2910 2910 2909 2909 2908 2908 2907 2907 2906 2905 2905 2904 2903 2903 2902
3018 3016 3014 3012 3009 3008 3005 3003 3001 2999 2997 2995 2993 2992 2990 2987 2984 2981 2978 2976 2974 2973 2970 2968 2966 2963 2961 2959 2957 2955 2953 2951 2949 2948 2946 2944 2942 2940 2938 2937 2935 2933 2932 2930 2929 2928 2926 2925 2924 2923 2922 2921 2921 2920 2920 2919 2918 2917 2916 2916 2915 2915 2914 2913 2912 2912 2912 2911 2910 2909 2909 2908 2908 2908 2907 2906 2906 2905 2905 2904 2903 2903 2902 2902 2901 2901
3015 3013 3012 3010 3007 3005 3003 3002 2999 2997 2995 2993 2991 2989 2987 2985 2983 2980 2977 2974 2972 2970 2968 2966 2964 2962 2960 2958 2955 2953 2951 2950 2948 2947 2945 2943 2941 2939 2937 2936 2934 2932 2931 2929 2928 2926 2925 2923 2922 2921 2920 2919 2919 2918 2918 2916 2915 2914 2914 2913 2913 2913 2912 2911 2910 2910 2910 2909 2908 2908 2907 2907 2906 2906 2905 2904 2904 2903 2903 2902 2902 2901 2901 2900 2900 2899
3013 3011 3009 3008 3006 3003 3001 2999 2998 2996 2994 2992 2989 2987 2984 2982 2979 2978 2976 2973 2971 2969 2967 2964 2962 2960 2958 2956 2954 2952 2950 2948 2947 2945 2943 2941 2940 2938 2936 2934 2933 2931 2929 2928 2927 2925 2924 2923 2921 2920 2919 2918 2917 2916 2915 2914 2913 2912 2912 2911 2911 2911 2910 2909 2909 2908 2908 2907 2907 2906 2906 2905 2905 2904 2903 2903 2902 2902 2901 2900 2900 2899 2899 2898 2898 2898
3012 3010 3007 3006 3005 3003 2999 2996 2994 2993 2992 2990 2988 2985 2983 2980 2977 2974 2973 2972 2970 2968 2966 2963 2961 2958 2956 2954 2953 2951 2948 2947 2945 2943 2941 2939 2938 2936 2934 2933 2931 2930 2928 2927 2925 2924 2923 2921 2920 2919 2918 2917 2915 2914 2913 2912 2911 2910 2910 2909 2909 2909 2908 2908 2908 2907 2907 2906 2905 2905 2904 2904 2903 2903 2902 2901 2900 2900 2899 2898 2898 2898 2897 2897 2896 2896
3010 3008 3007 3004 3002 3001 2999 2996 2993 2991 2989 2987 2984 2983 2982 2980 2977 2973 2970 2968 2967 2966 2964 2963 2960 2958 2954 2952 2951 2949 2948 2946 2944 2942 2940 2938 2936 2935 2933 2932 2930 2929 2927 2926 2924 2923 2922 2921 2919 2918 2917 2916 2914 2913 2912 2911 2910 2909 2908 2908 2908 2908 2907 2907 2907 2906 2905 2904 2904 2903 2903 2902 2902 2901 2900 2899 2899 2898 2898 2897 2896 2896 2895 2894 2894 2893
3008 3006 3005 3003 3000 2998 2996 2994 2992 2990 2988 2985 2982 2980 2978 2978 2976 2974 2970 2967 2965 2963 2961 2960 2958 2956 2954 2951 2949 2948 2947 2945 2943 2941 2940 2938 2936 2935 2933 2931 2930 2928 2927 2925 2924 2923 2921 2920 2918 2917 2916 2915 2913 2912 2911 2910 2909 2908 2908 2907 2907 2907 2907 2907 2906 2905 2904 2903 2903 2902 2902 2901 2900 2900 2899 2898 2897 2896 2896 2895 2894 2893 2893 2892 2891 2891
3006 3005 3003 3001 2998 2996 2994 2992 2990 2988 2986 2984 2982 2979 2976 2974 2973 2972 2969 2967 2964 2962 2959 2957 2956 2954 2953 2951 2948 2947 2945 2944 2942 2941 2939 2938 2936 2934 2933 2931 2929 2928 2926 2925 2923 2922 2921 2919 2918 2917 2915 2914 2913 2912 2910 2909 2909 2908 2908 2907 2906 2906 2906 2906 2905 2904 2902 2902 2901 2901 2900 2900 2899 2898 2897 2897 2896 2895 2894 2893 2892 2891 2891 2890 2889 2888
3004 3003 3001 2999 2997 2995 2993 2990 2988 2986 2984 2982 2980 2978 2975 2973 2971 2969 2967 2965 2963 2961 2958 2956 2954 2953 2951 2949 2948 2946 2945 2943 2942 2940 2938 2936 2935 2933 2931 2930 2928 2927 2925 2924 2923 2921 2920 2918 2917 2916 2914 2913 2912 2911 2910 2909 2908 2908 2907 2907 2906 2905 2904 2903 2903 2902 2901 2901 2900 2900 2899 2898 2898 2897 2896 2895 2894 2893 2893 2892 2891 2890 2889 2888 2887 2887
3003 3001 2999 2998 2995 2993 2991 2989 2986 2984 2982 2980 2978 2976 2974 2972 2970 2968 2966 2963 2961 2960 2958 2956 2954 2952 2951 2949 2947 2946 2944 2943 2941 2939 2937 2935 2933 2931 2930 2928 2926 2925 2923 2922 2921 2920 2919 2918 2916 2915 2914 2913 2911 2910 2909 2908 2908 2907 2907 2906 2905 2904 2903 2902 2902 2901 2900 2900 2899 2898 2898 2897 2896 2895 2895 2894 2893 2892 2891 2890 2889 2888 2888 2887 2886 2885
3001 2999 2997 2995 2993 2991 2989 2987 2984 2982 2979 2978 2976 2975 2973 2970 2968 2967 2965 2963 2961 2959 2957 2956 2954 2953 2951 2949 2947 2945 2943 2942 2940 2938 2936 2934 2932 2930 2928 2926 2925 2923 2922 2920 2919 2918 2918 2916 2915 2914 2913 2912 2910 2909 2908 2907 2907 2907 2906 2905 2904 2903 2903 2902 2901 2900 2900 2899 2898 2898 2897 2896 2895 2894 2893 2893 2892 2891 2890 2888 2888 2887 2886 2885 2884 2884
2999 2998 2995 2993 2992 2989 2987 2985 2983 2981 2978 2976 2975 2973 2971 2969 2967 2965 2963 2961 2959 2958 2956 2955 2953 2952 2950 2949 2947 2945 2943 2941 2939 2937 2935 2933 2931 2929 2927 2925 2923 2922 2920 2919 2918 2917 2916 2915 2914 2913 2912 2911 2909 2908 2907 2906 2906 2905 2905 2904 2903 2903 2902 2901 2900 2899 2898 2898 2897 2896 2895 2894 2893 2893 2892 2891 2890 2889 2888 2888 2887 2885 2884 2883 2883 2882
2998 2996 2994 2992 2990 2988 2985 2983 2981 2979 2978 2976 2973 2972 2970 2968 2966 2964 2962 2960 2958 2956 2954 2953 2951 2949 2948 2947 2945 2943 2942 2939 2938 2936 2934 2932 2930 2928 2926 2924 2922 2920 2919 2918 2916 2915 2914 2913 2913 2912 2911 2910 2909 2908 2907 2906 2905 2904 2903 2903 2902 2901 2900 2900 2899 2898 2897 2896 2896 2895 2893 2893 2892 2891 2890 2889 2888 2888 2887 2886 2885 2884 2883 2882 2882 2881
2996 2994 2992 2990 2988 2986 2984 2982 2980 2978 2976 2974 2973 2970 2968 2967 2965 2963 2961 2959 2957 2955 2953 2951 2949 2947 2946 2944 2943 2942 2940 2938 2936 2935 2933 2931 2929 2927 2925 2923 2922 2920 2918 2917 2915 2914 2913 2912 2911 2910 2910 2909 2908 2907 2906 2905 2904 2903 2903 2902 2901 2900 2899 2898 2898 2897 2896 2895 2894 2893 2892 2891 2890 2889 2888 2888 2887 2886 2885 2884 2883 2883 2882 2881 2880 2879
2994 2993 2991 2989 2986 2984 2983 2981 2979 2977 2975 2973 2971 2969 2968 2965 2963 2962 2960 2958 2956 2954 2952 2949 2948 2946 2944 2943 2941 2940 2938 2937 2936 2934 2932 2930 2928 2927 2925 2923 2921 2919 2918 2916 2915 2913 2912 2911 2910 2909 2909 2908 2907 2906 2905 2904 2903 2902 2902 2901 2900 2899 2898 2897 2896 2895 2894 2893 2892 2891 2890 2889 2888 2888 2887 2886 2885 2884 2883 2883 2882 2881 2880 2879 2878 2878
2993 2991 2990 2988 2985 2983 2981 2979 2978 2976 2974 2972 2970 2969 2967 2965 2963 2962 2959 2958 2955 2953 2951 2949 2947 2945 2943 2942 2940 2939 2937 2936 2935 2933 2932 2930 2928 2926 2924 2923 2921 2919 2917 2916 2914 2913 2912 2911 2910 2909 2908 2907 2906 2905 2904 2903 2903 2902 2901 2900 2899 2898 2897 2896 2895 2893 2893 2892 2890 2889 2889 2888 2887 2886 2885 2885 2884 2883 2882 2881 2880 2879 2878 2878 2877 2876
2991 2989 2988 2986 2984 2982 2980 2978 2976 2975 2973 2971 2969 2967 2966 2964 2963 2961 2959 2957 2955 2953 2951 2949 2947 2944 2942 2940 2939 2937 2936 2935 2933 2932 2931 2929 2928 2926 2924 2922 2920 2918 2917 2915 2914 2913 2911 2910 2909 2908 2907 2906 2906 2905 2904 2903 2902 2901 2900 2899 2898 2897 2896 2895 2893 2893 2892 2890 2889 2888 2888 2887 2886 2885 2884 2883 2882 2882 2881 2880 2879 2878 2877 2876 2875 2874
2991 2988 2986 2984 2983 2981 2979 2977 2975 2973 2972 2970 2968 2966 2964 2963 2961 2959 2958 2956 2954 2953 2950 2948 2947 2944 2942 2940 2938 2937 2935 2934 2933 2932 2930 2929 2927 2926 2923 2922 2920 2918 2916 2915 2914 2912 2911 2910 2909 2908 2907 2906 2905 2904 2903 2902 2901 2900 2899 2898 2897 2896 2895 2894 2893 2892 2891 2889 2888 2888 2887 2886 2885 2884 2883 2882 2881 2880 2879 2878 2878 2877 2876 2875 2874 2873
2990 2988 2985 2983 2982 2980 2978 2976 2974 2973 2971 2969 2967 2965 2963 2962 2960 2958 2956 2955 2953 2951 2950 2948 2947 2945 2943 2941 2939 2937 2935 2934 2933 2932 2930 2928 2927 2925 2923 2922 2919 2918 2916 2915 2914 2912 2911 2910 2908 2908 2907 2906 2905 2904 2903 2902 2901 2900 2898 2898 2896 2895 2894 2893 2892 2891 2890 2889 2888 2887 2886 2885 2884 2883 2882 2881 2880 2879 2878 2877 2877 2876 2875 2874 2873 2872
2988 2986 2984 2982 2980 2979 2977 2975 2973 2971 2969 2968 2966 2964 2963 2961 2959 2957 2956 2954 2952 2951 2949 2948 2947 2946 2944 2942 2940 2938 2936 2934 2933 2931 2930 2928 2926 2924 2923 2921 2919 2918 2916 2915 2913 2912 2911 2910 2908 2907 2906 2905 2904 2903 2902 2901 2900 2899 2898 2897 2896 2895 2893 2893 2891 2890 2889 2888 2887 2886 2885 2884 2883 2882 2881 2880 2879 2878 2878 2877 2876 2875 2874 2873 2872 2871
2987 2985 2983 2981 2979 2978 2976 2974 2972 2970 2968 2967 2965 2963 2961 2960 2958 2957 2955 2953 2952 2951 2950 2949 2948 2946 2944 2942 2940 2938 2936 2934 2933 2931 2929 2928 2926 2924 2923 2921 2919 2918 2916 2915 2913 2912 2911 2910 2908 2908 2906 2905 2904 2903 2902 2901 2900 2899 2898 2897 2895 2894 2893 2892 2891 2890 2889 2888 2887 2886 2885 2884 2883 2882 2881 2880 2879 2878 2877 2876 2875 2874 2873 2873 2871 2870
2986 2984 2982 2980 2978 2977 2975 2973 2971 2969 2967 2965 2964 2962 2961 2959 2958 2957 2955 2954 2953 2951 2950 2949 2948 2946 2944 2942 2940 2938 2936 2934 2932 2930 2929 2927 2926 2924 2923 2921 2919 2918 2916 2915 2913 2913 2911 2910 2909 2908 2906 2905 2904 2903 2902 2901 2900 2899 2898 2896 2895 2894 2893 2892 2891 2890 2889 2888 2887 2886 2884 2883 2882 2881 2880 2879 2878 2877 2876 2875 2874 2873 2873 2872 2870 2869
2985 2983 2981 2979 2978 2976 2974 2972 2970 2968 2966 2964 2963 2961 2960 2958 2957 2956 2955 2953 2952 2950 2949 2947 2946 2945 2943 2941 2939 2937 2935 2933 2932 2930 2928 2927 2925 2924 2923 2921 2919 2918 2916 2915 2913 2913 2912 2910 2909 2908 2907 2905 2904 2903 2902 2901 2900 2899 2898 2896 2895 2894 2893 2892 2891 2890 2889 2888 2886 2885 2884 2883 2882 2881 2880 2878 2878 2877 2876 2874 2873 2873 2872 2870 2869 2869
2984 2982 2980 2979 2977 2975 2973 2971 2969 2967 2965 2963 2962 2960 2958 2957 2956 2954 2953 2952 2951 2949 2948 2946 2944 2943 2941 2940 2938 2936 2934 2933 2931 2930 2928 2927 2925 2924 2922 2921 2920 2918 2917 2915 2914 2913 2912 2911 2909 2908 2907 2906 2904 2903 2902 2901 2900 2899 2898 2897 2895 2894 2893 2892 2891 2889 2888 2887 2886 2885 2884 2883 2881 2880 2879 2878 2877 2876 2875 2874 2873 2872 2871 2870 2869 2868
2983 2982 2980 2978 2977 2975 2973 2971 2968 2966 2964 2962 2960 2959 2957 2956 2954 2953 2951 2950 2949 2948 2946 2944 2943 2941 2940 2939 2937 2935 2934 2932 2931 2929 2928 2927 2925 2924 2922 2921 2920 2919 2918 2916 2915 2913 2912 2911 2909 2908 2907 2906 2905 2904 2903 2902 2900 2899 2898 2897 2895 2894 2893 2892 2891 2889 2888 2887 2886 2885 2883 2882 2881 2880 2879 2878 2877 2876 2875 2874 2873 2872 2871 2870 2869 2868
2983 2981 2979 2978 2976 2974 2972 2970 2968 2965 2963 2961 2959 2958 2956 2954 2953 2951 2950 2949 2948 2946 2945 2943 2942 2940 2939 2938 2937 2935 2933 2932 2930 2929 2928 2927 2925 2924 2923 2921 2920 2919 2918 2917 2916 2915 2913 2912 2910 2908 2907 2906 2905 2904 2903 2902 2900 2899 2898 2897 2896 2894 2893 2892 2891 2889 2888 2887 2886 2884 2883 2882 2881 2880 2879 2878 2877 2876 2875 2874 2873 2872 2871 2870 2870 2869
2982 2981 2979 2977 2975 2973 2971 2969 2967 2964 2962 2960 2958 2957 2955 2953 2952 2950 2949 2948 2947 2945 2944 2942 2941 2939 2938 2937 2935 2934 2933 2931 2930 2929 2928 2926 2925 2924 2923 2921 2920 2919 2918 2917 2916 2915 2914 2912 2911 2909 2908 2906 2905 2904 2903 2902 2900 2899 2898 2897 2896 2894 2893 2892 2891 2890 2888 2887 2886 2885 2883 2883 2882 2880 2879 2878 2878 2877 2876 2875 2874 2873 2872 2871 2870 2869
2982 2980 2978 2977 2974 2972 2970 2968 2966 2963 2962 2959 2958 2956 2954 2953 2951 2950 2948 2947 2946 2945 2943 2942 2940 2938 2937 2935 2934 2933 2932 2931 2930 2929 2928 2927 2925 2924 2923 2922 2921 2919 2918 2917 2916 2914 2913 2912 2911 2909 2908 2906 2905 2904 2903 2901 2900 2899 2898 2897 2896 2894 2893 2892 2891 2890 2889 2888 2887 2885 2884 2883 2882 2881 2880 2879 2878 2878 2877 2876 2875 2874 2873 2872 2871 2870
2982 2980 2978 2976 2974 2972 2970 2968 2965 2963 2961 2959 2957 2955 2954 2952 2951 2949 2948 2947 2945 2944 2943 2941 2940 2938 2937 2935 2934 2933 2932 2931 2930 2929 2928 2927 2925 2924 2923 2922 2921 2920 2919 2918 2916 2915 2913 2912 2911 2910 2908 2906 2905 2903 2902 2901 2900 2899 2898 2897 2896 2894 2893 2892 2891 2890 2889 2888 2887 2886 2885 2884 2883 2882 2881 2880 2879 2878 2877 2876 2875 2874 2873 2872 2872 2871
2981 2979 2977 2975 2973 2971 2969 2967 2965 2963 2961 2959 2957 2955 2953 2952 2950 2949 2948 2946 2945 2943 2942 2941 2939 2938 2937 2935 2934 2933 2932 2931 2930 2929 2928 2927 2926 2924 2923 2922 2921 2920 2919 2918 2917 2915 2914 2912 2911 2910 2908 2907 2905 2903 2902 2901 2900 2898 2898 2896 2895 2894 2893 2893 2892 2891 2890 2889 2888 2887 2886 2885 2884 2883 2882 2881 2880 2879 2878 2877 2875 2874 2873 2873 2872 2871
2980 2978 2977 2975 2973 2971 2969 2967 2965 2963 2961 2958 2957 2955 2953 2952 2950 2949 2948 2946 2944 2943 2942 2940 2939 2938 2937 2936 2934 2933 2932 2931 2930 2929 2928 2927 2926 2925 2923 2922 2921 2920 2919 2918 2917 2915 2914 2913 2911 2910 2908 2907 2906 2904 2902 2901 2899 2898 2898 2897 2896 2895 2894 2893 2892 2891 2890 2889 2888 2888 2887 2885 2884 2883 2882 2881 2880 2879 2878 2877 2876 2874 2873 2873 2871 2870
2980 2978 2976 2974 2973 2971 2969 2967 2965 2963 2961 2958 2957 2954 2953 2951 2950 2949 2947 2946 2944 2943 2941 2940 2939 2938 2937 2936 2934 2933 2932 2931 2930 2929 2928 2927 2926 2925 2923 2922 2921 2920 2919 2918 2916 2915 2914 2913 2911 2910 2908 2907 2906 2904 2903 2901 2900 2899 2898 2897 2896 2895 2894 2893 2893 2892 2891 2890 2889 2888 2887 2886 2885 2884 2883 2882 2881 2879 2878 2877 2876 2875 2874 2873 2872 2870
2979 2978 2976 2974 2972 2970 2968 2966 2964 2963 2960 2958 2956 2954 2953 2951 2949 2948 2947 2945 2944 2943 2941 2940 2939 2938 2937 2935 2934 2933 2933 2931 2930 2929 2928 2927 2926 2925 2924 2923 2921 2920 2918 2917 2916 2915 2914 2913 2912 2910 2909 2907 2906 2905 2903 2902 2901 2899 2898 2898 2897 2896 2895 2894 2893 2893 2892 2891 2890 2889 2888 2887 2886 2885 2883 2883 2881 2880 2879 2878 2877 2876 2874 2873 2872 2871
2979 2977 2975 2973 2972 2970 2968 2966 2964 2962 2960 2958 2956 2954 2952 2950 2949 2948 2947 2945 2944 2943 2941 2940 2939 2938 2937 2936 2934 2933 2933 2932 2931 2929 2929 2928 2927 2926 2924 2923 2922 2920 2919 2918 2916 2915 2914 2913 2911 2910 2909 2908 2906 2905 2903 2902 2901 2900 2899 2898 2897 2896 2896 2895 2894 2893 2893 2892 2891 2889 2888 2888 2887 2885 2884 2883 2882 2881 2880 2879 2878 2877 2876 2874 2873 2871
2978 2977 2975 2973 2971 2969 2967 2965 2963 2961 2959 2957 2955 2953 2951 2949 2948 2947 2946 2945 2944 2943 2941 2940 2939 2938 2937 2936 2935 2934 2933 2932 2931 2930 2929 2928 2927 2926 2925 2923 2922 2921 2919 2918 2916 2915 2914 2913 2911 2910 2908 2908 2906 2905 2904 2903 2902 2900 2899 2899 2898 2897 2897 2896 2895 2894 2893 2892 2891 2890 2889 2888 2887 2886 2885 2884 2883 2882 2881 2880 2878 2877 2876 2875 2873 2872
2978 2976 2974 2972 2970 2968 2966 2964 2962 2960 2958 2956 2954 2953 2951 2949 2948 2947 2946 2945 2944 2943 2942 2941 2940 2938 2938 2937 2936 2934 2933 2933 2932 2930 2929 2928 2927 2926 2925 2924 2923 2921 2919 2918 2917 2915 2914 2913 2912 2910 2909 2908 2906 2905 2904 2903 2902 2901 2900 2899 2898 2898 2897 2896 2895 2894 2893 2893 2892 2891 2890 2889 2888 2887 2885 2884 2883 2882 2881 2880 2878 2877 2876 2875 2873 2872
2978 2976 2974 2972 2970 2968 2965 2963 2961 2959 2957 2955 2954 2953 2951 2950 2949 2948 2946 2945 2944 2943 2942 2941 2940 2939 2938 2937 2936 2935 2934 2933 2932 2931 2930 2928 2927 2926 2925 2924 2923 2922 2920 2918 2917 2915 2914 2913 2912 2911 2909 2908 2907 2906 2904 2903 2902 2902 2901 2900 2899 2898 2897 2897 2896 2895 2894 2893 2893 2892 2891 2889 2888 2887 2886 2884 2883 2882 2881 2880 2878 2877 2876 2874 2873 2872
2977 2975 2973 2971 2969 2967 2964 2962 2960 2958 2956 2955 2954 2953 2952 2950 2949 2948 2947 2946 2945 2944 2943 2942 2941 2940 2939 2938 2937 2936 2934 2933 2933 2931 2930 2929 2928 2926 2925 2924 2923 2922 2921 2919 2918 2916 2914 2913 2912 2911 2910 2908 2907 2906 2905 2904 2903 2902 2901 2900 2900 2899 2898 2898 2897 2896 2895 2894 2893 2892 2891 2890 2889 2887 2886 2885 2883 2882 2881 2880 2878 2877 2876 2874 2873 2871
2977 2975 2973 2971 2968 2966 2964 2962 2959 2958 2956 2955 2954 2953 2952 2951 2950 2948 2948 2946 2945 2944 2943 2942 2941 2940 2939 2938 2937 2936 2935 2934 2933 2932 2931 2929 2928 2926 2925 2923 2923 2922 2921 2920 2918 2917 2915 2914 2912 2911 2910 2909 2908 2907 2906 2905 2904 2903 2902 2901 2900 2899 2899 2898 2897 2896 2895 2895 2894 2893 2892 2890 2889 2888 2886 2885 2884 2883 2881 2880 2879 2877 2876 2874 2873 2871
2976 2974 2972 2970 2968 2965 2963 2961 2959 2958 2956 2955 2954 2953 2952 2951 2950 2949 2948 2947 2946 2945 2943 2943 2942 2941 2940 2939 2938 2937 2936 2935 2934 2933 2931 2930 2928 2927 2925 2923 2922 2921 2921 2920 2919 2917 2916 2914 2913 2911 2910 2909 2908 2907 2906 2905 2904 2903 2903 2902 2901 2900 2899 2898 2898 2897 2896 2895 2894 2893 2892 2890 2889 2888 2887 2886 2884 2883 2882 2881 2879 2878 2876 2874 2873 2871
2976 2974 2972 2969 2967 2965 2963 2961 2959 2958 2957 2955 2954 2953 2952 2951 2950 2949 2948 2947 2946 2945 2944 2943 2943 2942 2941 2940 2939 2939 2938 2937 2936 2934 2933 2932 2930 2928 2926 2924 2922 2921 2920 2919 2918 2917 2916 2915 2913 2912 2911 2909 2908 2908 2907 2906 2905 2904 2903 2902 2901 2900 2900 2899 2898 2897 2896 2895 2894 2893 2892 2891 2890 2888 2887 2886 2885 2883 2882 2881 2880 2878 2877 2875 2873 2871
2976 2974 2972 2969 2967 2965 2963 2961 2959 2958 2957 2956 2954 2953 2953 2951 2950 2949 2949 2948 2947 2946 2945 2944 2943 2943 2943 2942 2941 2940 2939 2938 2938 2936 2935 2933 2932 2929 2927 2925 2922 2920 2919 2918 2918 2917 2916 2915 2913 2912 2911 2910 2909 2908 2907 2906 2906 2905 2904 2903 2902 2901 2900 2899 2899 2898 2897 2896 2895 2894 2893 2891 2890 2889 2888 2886 2885 2884 2883 2881 2880 2878 2877 2875 2873 2871
2976 2974 2972 2969 2967 2965 2963 2961 2959 2958 2957 2956 2955 2954 2953 2952 2951 2950 2949 2948 2948 2947 2946 2945 2944 2944 2943 2943 2942 2941 2940 2939 2938 2937 2936 2934 2933 2931 2928 2926 2923 2921 2918 2917 2917 2917 2916 2915 2914 2913 2912 2911 2910 2909 2908 2907 2906 2905 2904 2903 2903 2902 2901 2900 2899 2898 2897 2896 2895 2894 2893 2892 2891 2890 2888 2887 2886 2884 2883 2882 2880 2878 2877 2875 2873 2871
2976 2974 2972 2969 2967 2965 2963 2961 2959 2958 2957 2956 2955 2954 2953 2953 2952 2951 2950 2949 2948 2948 2947 2946 2945 2945 2944 2943 2942 2941 2940 2939 2938 2937 2936 2934 2933 2931 2929 2927 2925 2922 2919 2917 2916 2916 2915 2915 2914 2913 2912 2911 2910 2909 2908 2907 2906 2905 2904 2904 2903 2902 2901 2900 2899 2898 2898 2896 2895 2894 2893 2892 2891 2889 2888 2887 2886 2885 2883 2882 2881 2879 2877 2875 2873 2871
2976 2974 2972 2969 2967 2965 2963 2961 2960 2959 2958 2957 2956 2955 2954 2953 2952 2951 2950 2950 2949 2948 2947 2947 2946 2945 2944 2943 2943 2942 2940 2939 2938 2937 2935 2934 2933 2931 2930 2928 2926 2923 2921 2918 2916 2915 2914 2914 2913 2913 2912 2911 2910 2909 2908 2907 2907 2906 2905 2904 2903 2902 2901 2900 2899 2899 2898 2897 2896 2894 2893 2892 2891 2890 2888 2888 2887 2885 2884 2882 2881 2879 2877 2875 2873 2871
2976 2974 2972 2969 2968 2965 2964 2962 2961 2959 2958 2957 2956 2955 2954 2953 2953 2952 2951 2950 2949 2949 2948 2947 2947 2946 2945 2944 2943 2942 2940 2939 2938 2937 2935 2934 2932 2931 2929 2928 2926 2925 2923 2920 2917 2915 2914 2913 2913 2913 2912 2911 2910 2909 2908 2908 2907 2906 2905 2904 2903 2903 2902 2901 2900 2899 2898 2897 2896 2895 2893 2892 2891 2890 2889 2888 2887 2886 2884 2883 2881 2880 2878 2876 2874 2871
2976 2974 2972 2970 2968 2966 2964 2963 2961 2960 2959 2958 2957 2956 2955 2954 2953 2953 2952 2951 2950 2949 2948 2948 2947 2946 2945 2944 2943 2942 2940 2939 2938 2936 2935 2933 2932 2930 2928 2927 2926 2924 2923 2921 2919 2917 2915 2914 2913 2913 2912 2911 2911 2910 2909 2908 2907 2906 2905 2904 2903 2903 2902 2901 2900 2899 2898 2897 2896 2895 2894 2893 2891 2890 2889 2888 2887 2886 2884 2883 2881 2879 2878 2876 2874 2872